sat.trackr.live / text

‹ back to catalog

STARLINK-36382

NORAD 67807 · 2026-032L

PAYLOAD ACTIVE UNKNOWN

§ Identity

Operator
Country
US
Launch date
2026-02-15
Launch site
AFWTR
Launch vehicle
Mass (kg)
RCS (m²)

Purposes: comms

External: N2YO · Heavens-Above · Gunter

§ Orbital elements

Epoch: 2026-09-19T18:42:14.830848Z

Period
93.90 min
Inclination
97.2855°
Eccentricity
0.0002738
Mean motion
15.33467674 rev/d
Perigee alt
463.6 km
Apogee alt
467.3 km
Semi-major
6,843.6 km
B*
3.8920e-4
RAAN
89.1775°
Arg perigee
99.6626°
Mean anomaly
260.4926°
Rev number
3,470

§ Raw data

STARLINK-363821 67807U 26032L   26262.77933832  .00012521  00000+0  38920-3 0  99962 67807  97.2855  89.1775 0002738  99.6626 260.4926 15.33467674 34700

JSON: /api/v1/satellites/67807 · /tle

For live sub-satellite position, see the globe view (requires WebGL).

§ Visibility from observer

Set your observer location to see the next 7 days of passes ≥ 10°. The values pass through the URL so the page stays shareable.

No JS? Fill the form by hand. The geolocation button needs JavaScript.